This demonstration page uses our WeatherBlox Daily Observations layout. Learn more.

Left ArrowRight Arrow

Hourly Observations for August 24, 2019

Temp ( °F °C ) Dew Point ( °F °C ) Humidity (%) Winds ( mph kmh ) Pressure ( in mb ) Visibility ( mi km ) Precip ( " mm )
12:15 am 00:15 Clear 63 17 61 16 94 94 NNW 3 6 30.14 1021 10 16.0934 0 0
12:35 am 00:35 Clear 63 17 61 16 94 94 Calm 30.14 1021 10 16.0934 0 0
12:55 am 00:55 Clear 63 17 61 16 94 94 N 3 6 30.13 1020 10 16.0934 0 0
1:15 am 01:15 Clear 61 16 61 16 100 100 N 7 11 30.13 1020 10 16.0934 0 0
1:35 am 01:35 Clear 63 17 61 16 94 94 N 7 11 30.12 1020 10 16.0934 0 0
1:55 am 01:55 Clear 61 16 61 16 100 100 N 5 7 30.12 1020 10 16.0934 0 0
2:15 am 02:15 Clear 61 16 61 16 100 100 N 5 7 30.13 1020 10 16.0934 0 0
2:35 am 02:35 Clear 61 16 61 16 100 100 N 5 7 30.13 1020 10 16.0934 0 0
2:55 am 02:55 Clear 61 16 61 16 100 100 N 6 9 30.13 1020 10 16.0934 0 0
3:15 am 03:15 Clear 61 16 61 16 100 100 N 5 7 30.13 1020 10 16.0934 0 0
3:35 am 03:35 Clear 59 15 59 15 100 100 N 3 6 30.14 1021 10 16.0934 0 0
3:55 am 03:55 Clear 59 15 59 15 100 100 Calm 30.15 1021 10 16.0934 0 0
4:15 am 04:15 Clear 59 15 59 15 100 100 Calm 30.15 1021 10 16.0934 0 0
4:35 am 04:35 Clear 59 15 59 15 100 100 N 3 6 30.15 1021 10 16.0934 0 0
4:55 am 04:55 Clear 59 15 59 15 100 100 NNE 3 6 30.15 1021 10 16.0934 0 0
5:15 am 05:15 Clear 59 15 59 15 100 100 NNE 3 6 30.16 1021 10 16.0934 0 0
5:35 am 05:35 Clear 59 15 59 15 100 100 N 3 6 30.17 1022 10 16.0934 0 0
5:55 am 05:55 Clear 57 14 57 14 100 100 NNE 3 6 30.17 1022 10 16.0934 0 0
6:15 am 06:15 Clear 57 14 57 14 100 100 NNE 3 6 30.18 1022 10 16.0934 0 0
6:35 am 06:35 Sunny 55 13 55 13 100 100 NNE 7 11 30.18 1022 10 16.0934 0 0
6:55 am 06:55 Sunny 57 14 55 13 94 94 N 6 9 30.19 1022 10 16.0934 0 0
7:15 am 07:15 Sunny 55 13 55 13 100 100 N 3 6 30.2 1023 10 16.0934 0 0
7:35 am 07:35 Sunny 59 15 57 14 94 94 NNE 3 6 30.21 1023 10 16.0934 0 0
7:55 am 07:55 Sunny 61 16 55 13 83 83 NNE 7 11 30.21 1023 10 16.0934 0 0
8:15 am 08:15 Sunny 63 17 55 13 77 77 NNE 12 19 30.21 1023 10 16.0934 0 0
8:35 am 08:35 Sunny 63 17 55 13 77 77 NNE 9 15 30.21 1023 10 16.0934 0 0
8:55 am 08:55 Sunny 63 17 55 13 77 77 NNE 12 19 30.22 1023 10 16.0934 0 0
9:15 am 09:15 Sunny 64 18 57 14 78 78 NNE 12 19 30.21 1023 10 16.0934 0 0
9:35 am 09:35 Sunny 64 18 57 14 78 78 NE 14 22 30.22 1024 10 16.0934 0 0
9:55 am 09:55 Sunny 66 19 57 14 73 73 NNE 8 13 30.22 1023 10 16.0934 0 0
10:15 am 10:15 Sunny 68 20 57 14 69 69 NE 8 13 30.22 1023 10 16.0934 0 0
10:35 am 10:35 Sunny 70 21 57 14 64 64 NNE 7 11 30.22 1023 10 16.0934 0 0
10:55 am 10:55 Sunny 70 21 57 14 64 64 NE 7 11 30.21 1023 10 16.0934 0 0
11:15 am 11:15 Sunny 72 22 55 13 57 57 N 6 9 30.21 1023 10 16.0934 0 0
11:35 am 11:35 Sunny 72 22 55 13 57 57 N 10 17 30.21 1023 10 16.0934 0 0
11:55 am 11:55 Sunny 73 23 54 12 50 50 NE 8 13 30.2 1023 10 16.0934 0 0
12:15 pm 12:15 Sunny 73 23 55 13 53 53 NNE 6 9 30.2 1023 10 16.0934 0 0
12:35 pm 12:35 Sunny 73 23 55 13 53 53 NNE 9 15 30.2 1023 10 16.0934 0 0
12:55 pm 12:55 Partly Cloudy 75 24 54 12 47 47 NNE 9 15 30.2 1023 10 16.0934 0 0
1:15 pm 13:15 Partly Cloudy 75 24 52 11 44 44 ENE 6 9 30.2 1023 10 16.0934 0 0
1:35 pm 13:35 Partly Cloudy 77 25 52 11 42 42 NNE 12 19 30.18 1022 10 16.0934 0 0
1:55 pm 13:55 Partly Cloudy 75 24 52 11 44 44 Calm 30.19 1022 10 16.0934 0 0
2:15 pm 14:15 Partly Cloudy 77 25 54 12 44 44 NE 12 19 30.18 1022 10 16.0934 0 0
2:35 pm 14:35 Cloudy 75 24 52 11 44 44 N 7 11 30.19 1022 10 16.0934 0 0
2:55 pm 14:55 Partly Cloudy 77 25 52 11 42 42 NNE 8 13 30.17 1022 10 16.0934 0 0
3:15 pm 15:15 Mostly Cloudy 75 24 54 12 47 47 NE 8 13 30.18 1022 10 16.0934 0 0
3:35 pm 15:35 Cloudy 75 24 54 12 47 47 N 6 9 30.18 1022 10 16.0934 0 0
3:55 pm 15:55 Cloudy 75 24 54 12 47 47 NNW 8 13 30.18 1022 10 16.0934 0 0
4:15 pm 16:15 Cloudy 73 23 54 12 50 50 N 8 13 30.18 1022 10 16.0934 0 0
4:35 pm 16:35 Partly Cloudy 73 23 52 11 47 47 NNE 3 6 30.18 1022 10 16.0934 0 0
4:55 pm 16:55 Sunny 73 23 54 12 50 50 N 7 11 30.18 1022 10 16.0934 0 0
5:15 pm 17:15 Sunny 73 23 54 12 50 50 NNE 6 9 30.17 1022 10 16.0934 0 0
5:35 pm 17:35 Partly Cloudy 77 25 54 12 44 44 NE 5 7 30.16 1021 10 16.0934 0 0
5:55 pm 17:55 Sunny 77 25 52 11 42 42 NNE 9 15 30.16 1021 10 16.0934 0 0
6:15 pm 18:15 Sunny 77 25 52 11 42 42 NNE 9 15 30.16 1021 10 16.0934 0 0
6:35 pm 18:35 Sunny 75 24 54 12 47 47 N 8 13 30.17 1022 10 16.0934 0 0
6:55 pm 18:55 Sunny 73 23 54 12 50 50 N 7 11 30.18 1022 10 16.0934 0 0
7:15 pm 19:15 Sunny 73 23 54 12 50 50 NNE 6 9 30.18 1022 10 16.0934 0 0
7:35 pm 19:35 Sunny 73 23 54 12 50 50 NE 6 9 30.19 1022 10 16.0934 0 0
7:55 pm 19:55 Clear 72 22 55 13 57 57 NE 3 6 30.19 1022 10 16.0934 0 0
8:15 pm 20:15 Clear 72 22 55 13 57 57 NNE 3 6 30.2 1023 10 16.0934 0 0
8:35 pm 20:35 Partly Cloudy 70 21 55 13 60 60 NNE 3 6 30.2 1023 10 16.0934 0 0
8:55 pm 20:55 Mostly Cloudy 70 21 57 14 64 64 NE 5 7 30.2 1023 10 16.0934 0 0
9:15 pm 21:15 Cloudy 70 21 57 14 64 64 NNE 6 9 30.21 1023 10 16.0934 0 0
9:35 pm 21:35 Mostly Cloudy 68 20 57 14 69 69 NE 5 7 30.22 1023 10 16.0934 0 0
9:55 pm 21:55 Mostly Cloudy 68 20 57 14 69 69 NNE 3 6 30.22 1023 10 16.0934 0 0
10:15 pm 22:15 Cloudy 68 20 57 14 69 69 NNE 3 6 30.22 1023 10 16.0934 0 0
10:35 pm 22:35 Mostly Cloudy 66 19 57 14 73 73 NNE 6 9 30.22 1023 10 16.0934 0 0
10:55 pm 22:55 Partly Cloudy 66 19 55 13 68 68 NNE 6 9 30.23 1024 10 16.0934 0 0
11:15 pm 23:15 Mostly Cloudy 66 19 55 13 68 68 NNE 3 6 30.23 1024 10 16.0934 0 0
11:35 pm 23:35 Cloudy 66 19 57 14 73 73 NNE 5 7 30.23 1024 10 16.0934 0 0
11:55 pm 23:55 Cloudy 66 19 57 14 73 73 NNE 5 7 30.23 1024 10 16.0934 0 0

Powered by AerisWeather